Location: *
(33.8649°S, 62.1526°E)
Time: 16:29:49
(UTC+00:00)

N. Korean satellite - Visible Passes

Search period start: 30 September 2022 00:00
Search period end: 10 October 2022 00:00
Orbit: 427 x 468 km, 97.3° (Epoch: 29 September)

Date Brightness Start Highest point End Pass type
(mag) Time Alt. Az. Time Alt. Az. Time Alt. Az.
01 Oct 6.3 00:31:34 10° N 00:34:54 70° W 00:38:20 10° SSW visible
01 Oct 8.4 23:56:11 10° NE 23:59:13 31° ESE 00:02:19 10° S visible
02 Oct 10.1 23:23:00 10° E 23:23:41 10° ESE 23:24:23 10° ESE visible
03 Oct 7.1 00:52:56 10° NNW 00:56:00 32° W 00:59:08 10° SSW visible
04 Oct 6.8 00:16:47 10° NNE 00:20:07 67° ESE 00:23:34 10° S visible
04 Oct 9.3 23:41:53 10° ENE 23:44:25 20° ESE 23:46:59 10° SSE visible
06 Oct 6.5 00:37:37 10° N 00:40:57 55° W 00:44:22 10° SSW visible
07 Oct 8.0 00:01:52 10° NE 00:05:03 38° ESE 00:08:18 10° S visible
07 Oct 10.0 23:27:44 10° E 23:29:18 13° ESE 23:30:53 10° SE visible
09 Oct 6.5 00:22:11 10° NNE 00:25:35 82° ESE 00:29:05 10° S visible
09 Oct 9.1 23:46:53 10° NE 23:49:40 23° ESE 23:52:29 10° SSE visible
